K5TCS Weather Reports


Display with metric or nautical units.
time (UTC)temp
F
wind
direction
speed
MPH
gust
MPH
rain 1hr
in
rain 24hr
in
rain mn
in
humidity
%
barometer
mb
20260901064017 63 0.0 3.0 0.00 0.00 0.00 49 1028.6
20260901063017 64 203 1.0 5.0 0.00 0.00 0.00 49 1029.2
20260901062017 64 225 2.0 10.0 0.00 0.00 0.00 49 1029.2
20260901061017 65 248 2.0 9.0 0.00 0.00 0.00 49 1029.2
20260901060017 65 248 3.0 9.0 0.00 0.00 0.00 50 1029.3
20260901055036 66 225 2.0 7.0 0.00 0.00 0.00 51 1029.2
20260901054017 66 248 4.0 10.0 0.00 0.00 0.00 51 1029.2
20260901053016 66 248 3.0 11.0 0.00 0.00 0.00 51 1029.5
20260901052017 66 248 3.0 9.0 0.00 0.00 0.00 52 1029.6
20260901051016 66 248 3.0 9.0 0.00 0.00 0.00 53 1029.1
20260901050016 67 248 2.0 9.0 0.00 0.00 0.00 54 1029.5
20260901045016 68 248 3.0 9.0 0.00 0.00 0.00 53 1029.2
20260901044017 69 248 2.0 8.0 0.00 0.00 0.00 51 1029.4
20260901043016 67 248 4.0 11.0 0.00 0.00 0.00 54 1028.5
20260901042016 67 0.0 3.0 0.00 0.00 0.00 52 1028.7
20260901041016 69 0.0 0.0 0.00 0.00 0.00 50 1028.5
20260901040017 70 0.0 0.0 0.00 0.00 0.00 49 1028.8
20260901035016 71 0.0 0.0 0.00 0.00 0.00 48 1028.7
20260901034016 71 0.0 0.0 0.00 0.00 0.00 47 1028.1
20260901033036 72 0.0 0.0 0.00 0.00 0.00 47 1028.2
20260901032036 72 0.0 0.0 0.00 0.00 0.00 47 1028.2
20260901031016 72 0.0 1.0 0.00 0.00 0.00 46 1027.2
20260901030016 73 0.0 2.0 0.00 0.00 0.00 46 1027.5
20260901025016 73 0.0 1.0 0.00 0.00 0.00 46 1027.3
20260901024016 73 0.0 0.0 0.00 0.00 0.00 45 1025.3
20260901023016 74 0.0 2.0 0.00 0.00 0.00 44 1025.6
20260901022016 74 0.0 4.0 0.00 0.00 0.00 44 1025.4
20260901021016 74 0.0 3.0 0.00 0.00 0.00 44 1023.4
20260901020016 75 0.0 2.0 0.00 0.00 0.00 43 1023.6
20260901015036 75 0.0 3.0 0.00 0.00 0.00 43 1023.4
20260901014016 76 0.0 1.0 0.00 0.00 0.00 42 1022.5
20260901013056 76 0.0 4.0 0.00 0.00 0.00 41 1022.5
20260901012016 77 0.0 4.0 0.00 0.00 0.00 41 1022.9
20260901011016 78 0.0 2.0 0.00 0.00 0.00 40 1023.0
20260901010016 79 90 1.0 6.0 0.00 0.00 0.00 40 1023.5
20260901005016 80 90 2.0 7.0 0.00 0.00 0.00 39 1023.4
20260901004016 80 68 2.0 10.0 0.00 0.00 0.00 38 1024.0
20260901003016 81 113 3.0 10.0 0.00 0.00 0.00 37 1024.0
20260901002015 83 90 2.0 11.0 0.00 0.00 0.00 36 1024.5
20260901001016 83 90 2.0 9.0 0.00 0.00 0.00 36 1024.5
20260901000035 84 135 1.0 6.0 0.00 0.00 0.00 35 1024.8
20260831235016 84 90 1.0 9.0 0.00 0.00 0.00 34 1024.5
20260831234015 84 113 2.0 8.0 0.00 0.00 0.00 34 1024.1
20260831233015 84 113 1.0 6.0 0.00 0.00 0.00 35 1024.3
20260831232015 83 135 1.0 13.0 0.00 0.00 0.00 36 1024.0
20260831231015 82 90 3.0 9.0 0.00 0.00 0.00 36 1024.1
20260831230017 83 113 2.0 10.0 0.00 0.00 0.00 36 1024.1
20260831225017 83 90 2.0 10.0 0.00 0.00 0.00 36 1023.9
20260831224037 82 113 4.0 12.0 0.00 0.00 0.00 37 1024.1
20260831223017 81 113 2.0 10.0 0.00 0.00 0.00 38 1024.2
20260831222017 81 90 3.0 12.0 0.00 0.00 0.00 37 1024.4
20260831221017 83 113 3.0 11.0 0.00 0.00 0.00 36 1024.9
20260831220017 84 90 1.0 9.0 0.00 0.00 0.00 35 1024.9
20260831215017 83 45 3.0 11.0 0.00 0.00 0.00 36 1025.2
20260831214017 84 45 4.0 17.0 0.00 0.00 0.00 34 1025.2
20260831213017 84 135 2.0 12.0 0.00 0.00 0.00 33 1025.3
20260831212037 83 135 2.0 12.0 0.00 0.00 0.00 34 1025.6
20260831211057 82 90 3.0 10.0 0.00 0.00 0.00 34 1025.7
20260831210017 83 68 4.0 12.0 0.00 0.00 0.00 33 1026.3
20260831205017 85 90 2.0 7.0 0.00 0.00 0.00 32 1026.7
20260831204017 84 45 3.0 12.0 0.00 0.00 0.00 32 1025.9
20260831203017 84 90 4.0 12.0 0.00 0.00 0.00 32 1026.2
20260831202017 85 68 2.0 7.0 0.00 0.00 0.00 31 1026.6
20260831201017 84 113 1.0 7.0 0.00 0.00 0.00 31 1027.0
20260831200017 84 90 4.0 12.0 0.00 0.00 0.00 31 1027.2
20260831195017 83 45 3.0 10.0 0.00 0.00 0.00 32 1026.7
20260831194017 84 45 2.0 11.0 0.00 0.00 0.00 32 1027.4
20260831193017 84 90 4.0 11.0 0.00 0.00 0.00 33 1027.1
20260831192017 83 90 1.0 9.0 0.00 0.00 0.00 32 1027.0
20260831191037 83 0.0 4.0 0.00 0.00 0.00 29 1027.0
20260831190017 84 23 1.0 9.0 0.00 0.00 0.00 28 1026.9
20260831185037 86 113 2.0 10.0 0.00 0.00 0.00 28 1027.4
20260831184017 87 113 3.0 11.0 0.00 0.00 0.00 28 1028.6
20260831183017 86 68 2.0 9.0 0.00 0.00 0.00 30 1028.2
20260831182016 85 135 2.0 12.0 0.00 0.00 0.00 30 1028.4
20260831181016 86 90 5.0 14.0 0.00 0.00 0.00 29 1028.1
20260831180017 87 135 2.0 10.0 0.00 0.00 0.00 30 1028.6
20260831175036 86 90 1.0 6.0 0.00 0.00 0.00 30 1028.2
20260831174016 86 113 3.0 10.0 0.00 0.00 0.00 27 1028.4
20260831173057 86 68 3.0 11.0 0.00 0.00 0.00 27 1028.5
20260831172016 85 135 2.0 7.0 0.00 0.00 0.00 28 1027.9
20260831171017 84 135 2.0 12.0 0.00 0.00 0.00 30 1028.2
20260831170016 84 113 2.0 9.0 0.00 0.00 0.00 35 1028.5
20260831165057 83 180 1.0 7.0 0.00 0.00 0.00 36 1028.5
20260831164016 83 113 2.0 11.0 0.00 0.00 0.00 36 1028.6
20260831163017 83 135 1.0 6.0 0.00 0.00 0.00 38 1028.5
20260831162016 82 338 1.0 4.0 0.00 0.00 0.00 37 1028.6
20260831161016 81 0.0 2.0 0.00 0.00 0.00 38 1028.6
20260831160016 81 0.0 3.0 0.00 0.00 0.00 38 1028.5
20260831155036 80 0.0 3.0 0.00 0.00 0.00 39 1028.0
20260831154036 80 0.0 3.0 0.00 0.00 0.00 40 1029.1
20260831153016 79 0.0 3.0 0.00 0.00 0.00 40 1029.3
20260831152016 78 0.0 3.0 0.00 0.00 0.00 40 1028.9
20260831151036 77 0.0 3.0 0.00 0.00 0.00 41 1029.8
20260831150016 76 0.0 2.0 0.00 0.00 0.00 41 1029.4
20260831145016 74 0.0 3.0 0.00 0.00 0.00 42 1029.1
20260831144036 73 0.0 3.0 0.00 0.00 0.00 42 1029.7
20260831143016 72 0.0 3.0 0.00 0.00 0.00 42 1029.2
20260831142036 69 0.0 2.0 0.00 0.00 0.00 42 1028.8
20260831141016 66 0.0 3.0 0.00 0.00 0.00 43 1028.6
20260831140016 63 0.0 0.0 0.00 0.00 0.00 44 1027.6
20260831135016 61 0.0 1.0 0.00 0.00 0.00 43 1027.2
20260831134016 59 0.0 0.0 0.00 0.00 0.00 42 1027.0
20260831133016 58 0.0 3.0 0.00 0.00 0.00 42 1026.9
20260831132016 58 0.0 0.0 0.00 0.00 0.00 42 1026.3
20260831131016 57 0.0 0.0 0.00 0.00 0.00 42 1026.7
20260831130016 57 0.0 0.0 0.00 0.00 0.00 42 1026.7
20260831125016 57 0.0 1.0 0.00 0.00 0.00 43 1026.6
20260831124056 57 0.0 3.0 0.00 0.00 0.00 43 1026.5
20260831123016 58 0.0 1.0 0.00 0.00 0.00 44 1026.8
20260831122016 59 0.0 3.0 0.00 0.00 0.00 45 1026.8
20260831121036 58 0.0 3.0 0.00 0.00 0.00 44 1027.3
20260831120016 58 0.0 0.0 0.00 0.00 0.00 43 1027.2
20260831115015 57 0.0 0.0 0.00 0.00 0.00 44 1026.8
20260831114016 58 0.0 3.0 0.00 0.00 0.00 45 1027.1
20260831113016 58 0.0 4.0 0.00 0.00 0.00 44 1027.1
20260831112015 57 0.0 0.0 0.00 0.00 0.00 44 1027.0
20260831111016 56 0.0 0.0 0.00 0.00 0.00 45 1026.6
20260831110015 57 0.0 0.0 0.00 0.00 0.00 46 1026.7
20260831105015 57 0.0 0.0 0.00 0.00 0.00 46 1027.1
20260831104015 56 0.0 0.0 0.00 0.00 0.00 47 1026.6
20260831103015 56 0.0 0.0 0.00 0.00 0.00 48 1026.4
20260831102016 57 0.0 0.0 0.00 0.00 0.00 49 1026.8
20260831101015 57 0.0 0.0 0.00 0.00 0.00 49 1026.4
20260831100015 57 0.0 3.0 0.00 0.00 0.00 50 1026.5
20260831095015 57 0.0 2.0 0.00 0.00 0.00 51 1026.4
20260831094037 57 0.0 1.0 0.00 0.00 0.00 51 1026.4
20260831093017 57 0.0 1.0 0.00 0.00 0.00 52 1026.5
20260831092037 58 0.0 2.0 0.00 0.00 0.00 52 1026.5
20260831091017 57 0.0 0.0 0.00 0.00 0.00 52 1026.3
20260831090038 57 0.0 0.0 0.00 0.00 0.00 53 1026.4
20260831085037 58 0.0 1.0 0.00 0.00 0.00 53 1027.0
20260831084018 59 0.0 4.0 0.00 0.00 0.00 52 1026.9
20260831083017 58 0.0 2.0 0.00 0.00 0.00 52 1026.7
20260831082038 57 0.0 0.0 0.00 0.00 0.00 53 1026.4
20260831081017 57 0.0 0.0 0.00 0.00 0.00 53 1026.3
20260831080017 58 0.0 0.0 0.00 0.00 0.00 54 1026.6
20260831075037 59 0.0 0.0 0.00 0.00 0.00 53 1027.1
20260831074017 60 0.0 0.0 0.00 0.00 0.00 51 1027.7
20260831073017 60 0.0 2.0 0.00 0.00 0.00 52 1027.4
20260831072017 59 0.0 1.0 0.00 0.00 0.00 53 1027.4
20260831071017 60 0.0 2.0 0.00 0.00 0.00 52 1027.8
20260831070017 60 0.0 2.0 0.00 0.00 0.00 51 1027.8
20260831065017 61 0.0 4.0 0.00 0.00 0.00 51 1027.7